Location: Lombard
(41.8800°N, 88.0080°W)
Time: 06:19:01
(UTC-06:00)

BlueWalker 3 - Visible Passes

Search period start: 13 December 2025 00:00
Search period end: 23 December 2025 00:00
Orbit: 455 x 462 km, 53.2° (Epoch: 12 December)

Date Brightness Start Highest point End Pass type
(mag) Time Alt. Az. Time Alt. Az. Time Alt. Az.
13 Dec 5.1 17:04:24 10° W 17:06:30 15° SW 17:08:36 10° SSW visible
17 Dec 5.0 06:34:38 10° S 06:37:01 17° SE 06:39:24 10° E visible
18 Dec 5.1 06:00:28 10° SSE 06:02:08 13° SE 06:03:48 10° E visible
20 Dec 2.3 06:25:38 10° SW 06:29:11 61° SE 06:32:44 10° ENE visible
21 Dec 2.8 05:50:44 10° SSW 05:54:10 46° SE 05:57:37 10° ENE visible
22 Dec 3.3 05:16:54 17° SSW 05:19:09 34° SE 05:22:28 10° ENE visible
